Flag for U.S.A. Weather past 2 weeks in Urbana, Illinois, U.S.A.

Now
64 °F

Partly sunny.


Feels Like: 64 °F
Forecast: 49 / 72 °F
Wind: 8 mph from Northeast

Location: University Of Illinois-Willard Airport

Current Time: Jun 1, 2015 at 8:32:24 PM

Latest Report: Jun 1, 2015 at 7:53 PM


Visibility: 10 mi

Pressure: 30.15 "Hg

Humidity: 73%

Dew point: 55 °F

Location of UrbanaLocation

Historic Weather in Urbana — Graph

°F

Urbana temperature yesterday

Maximum temperature yesterday: 57 °F (at 2:53 PM)
Minimum temperature yesterday: 49 °F (at 1:53 AM)
Average temperature yesterday: 53 °F

Past Weeks' High & Low Weather Summary

 TemperatureHumidityPressure
High87 °F (May 24, 2:53 PM)97% (May 31, 1:53 AM)30.34 "Hg (May 31, 1:53 AM)
Low44 °F (May 19, 5:53 AM)24% (May 22, 3:53 PM)29.85 "Hg (May 26, 2:53 PM)
Average66 °F67%30.08 "Hg
* Reported May 17 6:53 PM — Jun 1 6:53 PM, Urbana, Weather by CustomWeather, © 2015

Note: Actual official high and low records may vary slightly from our data, if they occured in-between our weather recording intervals... More about our weather records

Advertising

Urbana weather history for previous 24 hours

 ConditionsComfort  
Time TempWeatherWind HumidityBarometerVisibility
6:53 PM
Mon, Jun 1
64 °FPassing clouds.8 mph70%30.14 "Hg10 mi
5:53 PM67 °FScattered clouds.12 mph63%30.13 "Hg10 mi
4:53 PM67 °FPartly sunny.12 mph63%30.14 "Hg10 mi
3:53 PM67 °FBroken clouds.13 mph66%30.14 "Hg10 mi
2:53 PM67 °FPartly sunny.10 mph66%30.15 "Hg10 mi
1:53 PM65 °FPartly sunny.12 mph70%30.16 "Hg10 mi
12:53 PM63 °FPartly sunny.14 mph73%30.18 "Hg10 mi
11:53 AM61 °FPartly sunny.12 mph75%30.18 "Hg10 mi
10:53 AM58 °FOvercast.13 mph78%30.19 "Hg10 mi
9:53 AM56 °FOvercast.14 mph81%30.19 "Hg10 mi
8:53 AM54 °FFog.12 mph90%30.19 "Hg4 mi
7:53 AM54 °FLow clouds.9 mph90%30.19 "Hg10 mi
6:53 AM54 °FOvercast.9 mph86%30.18 "Hg10 mi
5:53 AM53 °FOvercast.9 mph89%30.17 "Hg7 mi
4:53 AM53 °FMostly cloudy.8 mph89%30.16 "Hg7 mi
3:53 AM53 °FOvercast.9 mph89%30.14 "Hg10 mi
2:53 AM54 °FOvercast.10 mph86%30.14 "Hg10 mi
1:53 AM54 °FMostly cloudy.9 mph90%30.14 "Hg10 mi
12:53 AM54 °FOvercast.8 mph86%30.15 "Hg10 mi
11:53 PM
Sun, May 31
54 °FOvercast.10 mph86%30.16 "Hg10 mi
11:00 PM54 °FMostly cloudy.8 mph90%30.17 "Hg10 mi
9:53 PM54 °FMostly cloudy.9 mph90%30.17 "Hg9 mi
8:53 PM55 °FOvercast.10 mph83%30.15 "Hg10 mi
Weather by CustomWeather, © 2015

See weather overviewHow to use our weather pages